Regional Weather Roundup
Issued by NWS Bismarck, ND

Home | Current Version | Previous Version | Text Only | Print | Product List | Glossary On
Versions: 1 2 3 4 5 6 7 8 9 10 11 12 13 14 15 16 17 18 19 20 21 22 23 24 25 26 27 28 29 30 31 32 33 34 35 36 37 38 39 40 41 42 43 44 45 46 47 48 49 50
000
ASUS43 KBIS 221810
RWRBIS

NWR BROADCAST TEXT
NATIONAL WEATHER SERVICE BISMARCK ND
1200 PM CST WED NOV 22 2017

NOTE: "FAIR" INDICATES FEW OR NO CLOUDS BELOW 12,000 FEET WITH NO
SIGNIFICANT WEATHER AND/OR OBSTRUCTIONS TO VISIBILITY.


CITY           SKY/WX    TMP DP  RH WIND       PRES   REMARKS
WILLISTON      CLOUDY    43  31  62 S5        29.85R
MINOT          SUNNY     38  22  52 N3        29.80F
MINOT AFB      SUNNY     33  20  59 CALM      29.80F
BISMARCK       CLOUDY    43  22  43 S8        29.87F
DICKINSON      CLOUDY    60  38  43 W30G39    29.84S
GARRISON         N/A     42  28  57 W8        29.80F
HETTINGER ARPT CLOUDY    64  37  36 W30G36    29.91F
JAMESTOWN      CLOUDY    28  13  53 S21G26    29.87F WCI  15
CARRINGTON     MOCLDY    34  19  55 S12G18    29.87F
HAZEN          FAIR      46  30  53 W9        29.83F
LINTON           N/A     34  18  51 S12       29.92F
MANDAN         FAIR      37  19  48 S9        29.86F
OAKES            N/A     28  12  50 S20       29.96F WCI  15
RUGBY          FAIR      28  18  64 S8        29.84F
STANLEY        FAIR      41  30  65 NW15      29.82S
TIOGA          FAIR      45  34  65 W20       29.80F
WATFORD CITY   FAIR      50  36  57 W15       29.84S
$$

CITY           SKY/WX    TMP DP  RH WIND       PRES   REMARKS
GRAND FORKS    CLOUDY    22  15  75 S16       29.98F WCI   8
GRAND FORKS AF MIX PCPN  23  14  68 S16       29.95F WCI  10
DEVILS LAKE    CLOUDY    24  16  71 S10       29.88F WCI  14
FARGO          CLOUDY    27  13  55 S14       30.01F WCI  16
CANDO          MOCLDY    27  18  69 S12       29.87F WCI  16
CAVALIER       LGT SNOW  18  16  93 S15       29.94F VSB 3/4 WCI   3
GRAFTON        CLOUDY    19  16  86 S15G21    29.98F HAZE    WCI   5
GWINNER          N/A     30  12  47 S18       29.98F WCI  18
LANGDON        FLURRIES  23  21  93 S17       29.87F WCI   9
ROLLA          CLOUDY    23  19  86 SW17      29.82F WCI   9
WALHALLA       LGT SNOW  19  19 100 SE12      29.92F WCI   7
$$

CITY           SKY/WX    TMP DP  RH WIND       PRES   REMARKS
ABERDEEN       CLOUDY    30  15  53 S17       30.00F WCI  18
MOBRIDGE       CLOUDY    38  23  55 S10       29.90F
BUFFALO          N/A     61  37  41 W25       29.90F
RAPID CITY     SUNNY     71  37  28 NW26G41   30.02F
GLASGOW        SUNNY     48  33  56 NW5       29.90R
SIDNEY         CLOUDY    44  32  62 S5        29.89R
WOLF POINT     CLOUDY    41  27  57 SW9       29.89R
GLENDIVE       SUNNY     61  40  45 W24       29.90S
MILES CITY     CLOUDY    57  42  57 W16G24    29.97R
BAKER          CLOUDY    59  39  47 W26G33    29.96S
$$

CITY           SKY/WX    TMP DP  RH WIND       PRES   REMARKS
BILLINGS       CLOUDY    52  38  58 SW21      30.09F
GREAT FALLS    CLOUDY    57  40  52 SW18G29   30.04R
REGINA         CLOUDY    21  14  73 NE5       29.87S WCI  15
ESTEVAN        MOSUNNY   32  21  64 N5        29.82S
$$




USA.gov is the U.S. government's official web portal to all federal, state and local government web resources and services.